Location: Chiroubles
(46.1812°N, 4.6660°E)
Time: 16:42:50
(UTC+00:00)

Okean 1 - Pass Details

Date: 15 August 2020
Orbit: 539 x 554 km, 82.5° (Epoch: 22 September)

Event Time Altitude Azimuth Distance (km) Brightness Sun altitude
Rises 19:46:44 0° 0° (N) 2,745 7.3 -9.7°
Reaches altitude 10° 19:49:09 10° 12° (NNE) 1,846 6.3 -10.0°
Maximum altitude 19:52:41 28° 73° (ENE) 1,055 4.4 -10.5°
Enters shadow 19:55:12 16° 124° (SE) 1,500 4.9 -10.9°
